Time,TemperatureF,DewpointF,PressureIn,WindDirection,WindDirectionDegrees,WindSpeedMPH,WindSpeedGustMPH,Humidity,HourlyPrecipIn,Conditions,Clouds,dailyrainin,SoftwareType,DateUTC
2013-12-16 00:12:00,31.0,29.0,30.19,South,175,5.0,8.0,93,0.00,,,0.00,,2013-12-16 06:12:00,
2013-12-16 00:22:00,31.0,29.0,30.18,South,189,0.0,8.0,93,0.00,,,0.00,,2013-12-16 06:22:00,
2013-12-16 00:42:00,31.0,29.0,30.17,South,190,0.0,5.0,93,0.00,,,0.00,,2013-12-16 06:42:00,
2013-12-16 00:52:00,31.0,29.0,30.16,SSW,192,0.0,0.0,93,0.00,,,0.00,,2013-12-16 06:52:00,
2013-12-16 01:22:00,31.0,29.0,30.16,South,190,0.0,0.0,93,0.00,,,0.00,,2013-12-16 07:22:00,
2013-12-16 01:43:00,31.0,29.0,30.15,SSW,195,0.0,0.0,93,0.00,,,0.00,,2013-12-16 07:43:00,
2013-12-16 01:52:00,31.0,29.0,30.16,South,172,0.0,1.0,93,0.00,,,0.00,,2013-12-16 07:52:00,
2013-12-16 02:12:00,31.0,29.0,30.15,South,175,0.0,0.0,93,0.00,,,0.00,,2013-12-16 08:12:00,
2013-12-16 02:22:00,32.0,30.0,30.15,South,186,2.0,8.0,93,0.00,,,0.00,,2013-12-16 08:22:00,
2013-12-16 02:42:00,32.0,30.0,30.15,South,191,0.0,0.0,93,0.00,,,0.00,,2013-12-16 08:42:00,
2013-12-16 02:52:00,32.0,30.0,30.15,South,175,0.0,0.0,93,0.00,,,0.00,,2013-12-16 08:52:00,
2013-12-16 03:11:00,32.0,30.0,30.14,SSE,163,0.0,0.0,93,0.00,,,0.00,,2013-12-16 09:11:00,
2013-12-16 03:22:00,32.0,30.0,30.13,South,177,0.0,0.0,93,0.00,,,0.00,,2013-12-16 09:22:00,
2013-12-16 03:43:00,32.0,30.0,30.13,South,180,0.0,0.0,93,0.00,,,0.00,,2013-12-16 09:43:00,
2013-12-16 03:53:00,32.0,30.0,30.12,South,177,0.0,5.0,93,0.00,,,0.00,,2013-12-16 09:53:00,
2013-12-16 04:12:00,32.0,30.0,30.11,South,182,0.0,0.0,93,0.00,,,0.00,,2013-12-16 10:12:00,
2013-12-16 04:23:00,32.0,30.0,30.11,SSE,162,0.0,0.0,93,0.00,,,0.00,,2013-12-16 10:23:00,
2013-12-16 04:43:00,33.0,31.0,30.10,South,184,0.0,7.0,93,0.00,,,0.00,,2013-12-16 10:43:00,
2013-12-16 04:52:00,33.0,31.0,30.11,SSW,192,0.0,0.0,93,0.00,,,0.00,,2013-12-16 10:52:00,
2013-12-16 05:12:00,33.0,31.0,30.11,South,180,0.0,0.0,92,0.00,,,0.00,,2013-12-16 11:12:00,
2013-12-16 05:22:00,33.0,31.0,30.11,South,171,0.0,0.0,92,0.00,,,0.00,,2013-12-16 11:22:00,
2013-12-16 05:42:00,33.0,31.0,30.10,South,173,7.0,9.0,92,0.00,,,0.00,,2013-12-16 11:42:00,
2013-12-16 05:52:00,33.0,31.0,30.11,SSW,194,6.0,11.0,92,0.00,,,0.00,,2013-12-16 11:52:00,
2013-12-16 06:12:00,33.0,31.0,30.11,SSW,197,6.0,9.0,93,0.00,,,0.00,,2013-12-16 12:12:00,
2013-12-16 06:22:00,33.0,31.0,30.11,SSW,192,3.0,8.0,93,0.00,,,0.00,,2013-12-16 12:22:00,
2013-12-16 06:42:00,33.0,31.0,30.11,South,182,0.0,7.0,93,0.00,,,0.00,,2013-12-16 12:42:00,
2013-12-16 06:52:00,33.0,31.0,30.11,SSW,196,0.0,0.0,93,0.00,,,0.00,,2013-12-16 12:52:00,
2013-12-16 07:11:00,33.0,31.0,30.11,SSW,194,0.0,0.0,93,0.00,,,0.00,,2013-12-16 13:11:00,
2013-12-16 07:22:00,33.0,31.0,30.12,SSW,198,0.0,0.0,93,0.00,,,0.00,,2013-12-16 13:22:00,
2013-12-16 07:42:00,33.0,31.0,30.11,South,188,0.0,0.0,93,0.00,,,0.00,,2013-12-16 13:42:00,
2013-12-16 07:52:00,33.0,31.0,30.11,South,184,0.0,0.0,93,0.00,,,0.00,,2013-12-16 13:52:00,
2013-12-16 08:12:00,33.0,31.0,30.11,SSW,192,0.0,0.0,93,0.00,,,0.00,,2013-12-16 14:12:00,
2013-12-16 08:22:00,33.0,31.0,30.11,SSW,195,0.0,0.0,93,0.00,,,0.00,,2013-12-16 14:22:00,
2013-12-16 08:42:00,32.0,30.0,30.11,SSW,202,0.0,0.0,93,0.00,,,0.00,,2013-12-16 14:42:00,
2013-12-16 08:52:00,33.0,31.0,30.12,SSW,199,0.0,0.0,93,0.00,,,0.00,,2013-12-16 14:52:00,
2013-12-16 09:11:00,33.0,31.0,30.12,SSW,202,0.0,0.0,93,0.00,,,0.00,,2013-12-16 15:11:00,
2013-12-16 09:21:00,34.0,32.0,30.12,South,191,0.0,0.0,92,0.01,,,0.01,,2013-12-16 15:21:00,
2013-12-16 09:43:00,34.0,32.0,30.13,South,191,0.0,0.0,91,0.01,,,0.01,,2013-12-16 15:43:00,
2013-12-16 09:54:00,35.0,33.0,30.13,SSW,193,0.0,0.0,91,0.01,,,0.01,,2013-12-16 15:54:00,
2013-12-16 10:13:00,35.0,33.0,30.13,SSW,196,0.0,0.0,91,0.01,,,0.01,,2013-12-16 16:13:00,
2013-12-16 10:23:00,36.0,33.0,30.13,SSW,195,0.0,0.0,89,0.01,,,0.02,,2013-12-16 16:23:00,
2013-12-16 10:43:00,36.0,33.0,30.13,South,191,0.0,0.0,88,0.01,,,0.02,,2013-12-16 16:43:00,
2013-12-16 10:52:00,37.0,34.0,30.12,SSW,209,0.0,0.0,87,0.02,,,0.03,,2013-12-16 16:52:00,
2013-12-16 11:12:00,37.0,34.0,30.12,South,190,0.0,0.0,87,0.03,,,0.04,,2013-12-16 17:12:00,
2013-12-16 11:22:00,37.0,33.0,30.12,SSW,203,0.0,0.0,86,0.02,,,0.04,,2013-12-16 17:22:00,
2013-12-16 11:52:00,40.0,35.0,30.11,WNW,284,0.0,4.0,83,0.03,,,0.06,,2013-12-16 17:52:00,
2013-12-16 12:12:00,41.0,35.0,30.10,West,280,0.0,3.0,79,0.02,,,0.06,,2013-12-16 18:12:00,
2013-12-16 12:22:00,41.0,35.0,30.09,West,273,0.0,3.0,78,0.03,,,0.07,,2013-12-16 18:22:00,
2013-12-16 12:42:00,42.0,35.0,30.09,SSW,200,0.0,2.0,77,0.03,,,0.08,,2013-12-16 18:42:00,
2013-12-16 12:52:00,41.0,34.0,30.08,SW,225,0.0,1.0,77,0.02,,,0.08,,2013-12-16 18:52:00,
2013-12-16 13:11:00,40.0,34.0,30.07,SSW,207,0.0,0.0,79,0.03,,,0.09,,2013-12-16 19:11:00,
2013-12-16 13:21:00,41.0,35.0,30.08,South,186,0.0,0.0,80,0.02,,,0.09,,2013-12-16 19:21:00,
2013-12-16 13:42:00,40.0,35.0,30.08,SSW,212,0.0,0.0,81,0.02,,,0.10,,2013-12-16 19:42:00,
2013-12-16 13:52:00,41.0,35.0,30.08,SSW,211,0.0,0.0,79,0.02,,,0.10,,2013-12-16 19:52:00,
2013-12-16 14:11:00,43.0,36.0,30.08,WNW,282,0.0,4.0,75,0.01,,,0.10,,2013-12-16 20:11:00,
2013-12-16 14:22:00,44.0,36.0,30.07,SW,227,0.0,0.0,73,0.02,,,0.11,,2013-12-16 20:22:00,
2013-12-16 14:42:00,44.0,36.0,30.08,WNW,284,0.0,3.0,73,0.02,,,0.12,,2013-12-16 20:42:00,
2013-12-16 14:53:00,44.0,36.0,30.10,West,259,0.0,2.0,73,0.02,,,0.12,,2013-12-16 20:53:00,
2013-12-16 15:22:00,45.0,36.0,30.07,West,269,0.0,0.0,71,0.01,,,0.12,,2013-12-16 21:22:00,
2013-12-16 15:43:00,44.0,36.0,30.07,West,279,0.0,2.0,74,0.00,,,0.12,,2013-12-16 21:43:00,
2013-12-16 15:54:00,43.0,35.0,30.05,West,279,0.0,2.0,73,0.01,,,0.13,,2013-12-16 21:54:00,
2013-12-16 16:13:00,43.0,35.0,30.00,West,279,0.0,0.0,73,0.01,,,0.13,,2013-12-16 22:13:00,
2013-12-16 16:23:00,42.0,35.0,30.07,West,279,0.0,0.0,75,0.01,,,0.13,,2013-12-16 22:23:00,
2013-12-16 16:43:00,41.0,34.0,30.09,West,279,0.0,0.0,76,0.01,,,0.13,,2013-12-16 22:43:00,
2013-12-16 16:53:00,40.0,34.0,30.10,West,279,0.0,0.0,78,0.00,,,0.13,,2013-12-16 22:53:00,
2013-12-16 17:12:00,39.0,33.0,30.10,West,279,0.0,0.0,79,0.00,,,0.13,,2013-12-16 23:12:00,
2013-12-16 17:22:00,38.0,33.0,30.10,West,279,0.0,0.0,81,0.00,,,0.13,,2013-12-16 23:22:00,
2013-12-16 17:42:00,37.0,33.0,30.10,West,279,0.0,0.0,84,0.00,,,0.13,,2013-12-16 23:42:00,
2013-12-16 17:53:00,36.0,32.0,30.10,West,279,0.0,0.0,85,0.00,,,0.13,,2013-12-16 23:53:00,
2013-12-16 18:11:00,35.0,32.0,30.10,West,280,0.0,0.0,87,0.00,,,0.13,,2013-12-17 00:11:00,
2013-12-16 18:22:00,35.0,32.0,30.10,West,280,0.0,0.0,88,0.00,,,0.13,,2013-12-17 00:22:00,
2013-12-16 18:42:00,34.0,31.0,30.11,West,280,0.0,0.0,88,0.00,,,0.13,,2013-12-17 00:42:00,
2013-12-16 18:52:00,35.0,32.0,30.10,West,280,0.0,0.0,89,0.00,,,0.13,,2013-12-17 00:52:00,
2013-12-16 19:11:00,34.0,31.0,30.11,SSW,211,0.0,0.0,90,0.00,,,0.13,,2013-12-17 01:11:00,
2013-12-16 19:22:00,36.0,33.0,30.11,SSW,206,0.0,0.0,89,0.00,,,0.13,,2013-12-17 01:22:00,
2013-12-16 19:42:00,37.0,33.0,30.11,SSW,209,0.0,0.0,86,0.00,,,0.13,,2013-12-17 01:42:00,
2013-12-16 19:52:00,36.0,33.0,30.11,SSW,198,0.0,0.0,87,0.00,,,0.13,,2013-12-17 01:52:00,
2013-12-16 20:11:00,36.0,33.0,30.11,SSW,211,0.0,0.0,87,0.00,,,0.13,,2013-12-17 02:11:00,
2013-12-16 20:22:00,36.0,33.0,30.11,SSW,203,0.0,0.0,88,0.00,,,0.13,,2013-12-17 02:22:00,
2013-12-16 20:42:00,35.0,32.0,30.11,SSW,203,0.0,0.0,89,0.00,,,0.13,,2013-12-17 02:42:00,
2013-12-16 20:52:00,35.0,32.0,30.10,SSW,209,0.0,0.0,90,0.00,,,0.13,,2013-12-17 02:52:00,
2013-12-16 21:11:00,35.0,32.0,30.10,SSW,211,0.0,0.0,89,0.00,,,0.13,,2013-12-17 03:11:00,
2013-12-16 21:22:00,35.0,32.0,30.10,WSW,239,0.0,0.0,90,0.00,,,0.13,,2013-12-17 03:22:00,
2013-12-16 21:43:00,34.0,31.0,30.10,WSW,239,0.0,0.0,90,0.00,,,0.13,,2013-12-17 03:43:00,
2013-12-16 21:53:00,34.0,32.0,30.09,SW,217,0.0,0.0,91,0.00,,,0.13,,2013-12-17 03:53:00,
2013-12-16 22:13:00,35.0,33.0,30.10,SW,219,0.0,0.0,91,0.00,,,0.13,,2013-12-17 04:13:00,
2013-12-16 22:23:00,36.0,34.0,30.10,SW,219,0.0,0.0,91,0.00,,,0.13,,2013-12-17 04:23:00,
2013-12-16 22:43:00,35.0,32.0,30.11,SW,219,0.0,0.0,90,0.00,,,0.13,,2013-12-17 04:43:00,
2013-12-16 22:53:00,34.0,32.0,30.12,WSW,257,0.0,0.0,91,0.00,,,0.13,,2013-12-17 04:53:00,
2013-12-16 23:11:00,34.0,32.0,30.12,NW,313,1.0,3.0,93,0.00,,,0.13,,2013-12-17 05:11:00,
2013-12-16 23:22:00,35.0,33.0,30.12,NW,313,0.0,4.0,92,0.00,,,0.13,,2013-12-17 05:22:00,
2013-12-16 23:42:00,35.0,33.0,30.13,NW,319,4.0,7.0,91,0.00,,,0.13,,2013-12-17 05:42:00,
2013-12-16 23:52:00,34.0,31.0,30.13,NW,321,4.0,7.0,90,0.00,,,0.13,,2013-12-17 05:52:00,